Flag for U.S.A. Weather past 2 weeks in Port St. Lucie, Florida, U.S.A.

Now
73 °F

Overcast.


Feels Like: 76 °F
Forecast: 69 / 78 °F
Wind: 13 mph from Northeast

Location: Witham Field Airport

Current Time: Oct 24, 2014 at 3:59:45 AM

Latest Report: Oct 24, 2014 at 3:35 AM


Visibility: 10 mi

Pressure: 29.91 "Hg

Humidity: 69%

Dew point: 63 °F

Location of Port St. LucieLocation

Historic Weather in Port St. Lucie — Graph

°F

Port St. Lucie temperature yesterday

Maximum temperature yesterday: 77 °F (at 9:47 AM)
Minimum temperature yesterday: 73 °F (at 3:35 AM)
Average temperature yesterday: 75 °F

Past Weeks' High & Low Weather Summary

 TemperatureHumidityPressure
High86 °F (Oct 14, 11:47 AM)100% (Oct 14, 4:35 AM)30.12 "Hg (Oct 14, 4:35 AM)
Low61 °F (Oct 17, 5:55 AM)42% (Oct 16, 4:47 PM)29.88 "Hg (Oct 16, 4:47 PM)
Average75 °F76%29.99 "Hg
* Reported Oct 9 2:35 AM — Oct 24 2:55 AM, Port St. Lucie, Weather by CustomWeather, © 2014

Note: Actual official high and low records may vary slightly from our data, if they occured in-between our weather recording intervals... More about our weather records

Advertising

Port St. Lucie weather history for previous 24 hours

 ConditionsComfort  
Time TempWeatherWind HumidityBarometerVisibility
2:55 AM
Oct 24
73 °FOvercast.13 mph65%29.92 "Hg10 mi
2:15 AM73 °FOvercast.12 mph65%29.94 "Hg10 mi
1:55 AM73 °FOvercast.12 mph65%29.94 "Hg10 mi
1:35 AM73 °FPassing clouds.13 mph65%29.95 "Hg10 mi
1:15 AM73 °FPassing clouds.10 mph65%29.95 "Hg10 mi
12:55 AM73 °FClear.12 mph65%29.96 "Hg10 mi
12:35 AM73 °FClear.13 mph65%29.96 "Hg10 mi
12:15 AM73 °FClear.12 mph65%29.97 "Hg10 mi
11:55 PM
Oct 23
73 °FPassing clouds.12 mph65%29.97 "Hg10 mi
11:35 PM73 °FPassing clouds.12 mph65%29.97 "Hg10 mi
11:15 PM73 °FClear.13 mph65%29.97 "Hg10 mi
10:55 PM73 °FClear.13 mph61%29.97 "Hg10 mi
10:35 PM73 °FPassing clouds.12 mph61%29.98 "Hg10 mi
10:15 PM73 °FPassing clouds.14 mph61%29.97 "Hg10 mi
9:55 PM73 °FOvercast.13 mph65%29.97 "Hg10 mi
9:35 PM73 °FOvercast.13 mph61%29.96 "Hg10 mi
9:15 PM73 °FOvercast.12 mph61%29.95 "Hg10 mi
8:55 PM73 °FOvercast.13 mph65%29.95 "Hg10 mi
8:35 PM73 °FOvercast.13 mph61%29.94 "Hg10 mi
8:15 PM73 °FOvercast.12 mph61%29.94 "Hg10 mi
6:47 PM75 °FBroken clouds.13 mph57%29.92 "Hg7 mi
5:47 PM75 °FPartly sunny.12 mph61%29.92 "Hg7 mi
4:47 PM75 °FBroken clouds.13 mph61%29.92 "Hg7 mi
3:47 PM77 °FBroken clouds.10 mph61%29.93 "Hg7 mi
1:47 PM77 °FScattered clouds.15 mph61%29.98 "Hg7 mi
12:47 PM77 °FScattered clouds.13 mph61%29.98 "Hg7 mi
11:47 AM77 °FScattered clouds.15 mph61%29.99 "Hg7 mi
10:47 AM77 °FBroken clouds.10 mph65%29.99 "Hg7 mi
9:47 AM77 °FBroken clouds.14 mph65%29.98 "Hg7 mi
8:47 AM75 °FBroken clouds.12 mph65%29.96 "Hg7 mi
7:47 AM75 °FPassing clouds.12 mph69%29.94 "Hg10 mi
6:50 AM75 °FPassing clouds.12 mph69%29.93 "Hg10 mi
6:15 AM73 °FPassing clouds.10 mph69%29.93 "Hg10 mi
5:55 AM73 °FPassing clouds.12 mph74%29.92 "Hg10 mi
5:35 AM73 °FPassing clouds.12 mph74%29.92 "Hg10 mi
5:15 AM73 °FPassing clouds.8 mph74%29.92 "Hg10 mi
4:55 AM75 °FClear.12 mph69%29.92 "Hg10 mi
4:35 AM75 °FClear.10 mph69%29.92 "Hg10 mi
3:55 AM75 °FPassing clouds.8 mph69%29.92 "Hg10 mi
3:35 AM73 °FPassing clouds.8 mph74%29.92 "Hg10 mi
3:15 AM75 °FClear.7 mph65%29.93 "Hg10 mi
Weather by CustomWeather, © 2014

See weather overviewHow to use our weather pages